Location: Overspoor
(51.4747°N, 5.6641°E)
Time: 22:34:48
(UTC+02:00)

X-37B - Pass Details

Date: 01 February 2022
Orbit: 328 x 343 km, 45.0° (Epoch: 15 May)

Event Time Altitude Azimuth Distance (km) Brightness Sun altitude
Rises 18:40:42 0° 241° (WSW) 2,116 6.0 -11.6°
Reaches altitude 10° 18:42:59 10° 224° (SW) 1,276 4.1 -12.0°
Maximum altitude 18:45:13 21° 173° (S) 834 2.3 -12.3°
Enters shadow 18:46:50 14° 130° (SE) 1,086 2.5 -12.6°
